FW6209 Weather Reports


Display with metric or nautical units.
time (UTC)temp
F
wind
direction
speed
MPH
gust
MPH
rain 1hr
in
rain 24hr
in
rain mn
in
humidity
%
barometer
mb
20260831082443 66 227 0.0 0.0 0.00 0.00 0.00 94 1012.2
20260831081944 66 186 0.0 0.0 0.00 0.00 0.00 94 1012.2
20260831081443 66 225 0.0 0.0 0.00 0.00 0.00 94 1012.1
20260831080944 66 212 0.0 0.0 0.00 0.00 0.00 94 1012.2
20260831080443 66 207 0.0 0.0 0.00 0.00 0.00 93 1012.2
20260831075943 66 184 0.0 0.0 0.00 0.00 0.00 93 1012.4
20260831075439 66 168 0.0 0.0 0.00 0.00 0.00 93 1012.4
20260831074938 66 152 0.0 0.0 0.00 0.00 0.00 93 1012.3
20260831074437 66 161 0.0 0.0 0.00 0.00 0.00 93 1012.3
20260831073935 66 201 0.0 1.0 0.00 0.00 0.00 93 1012.3
20260831073435 66 171 0.0 1.0 0.00 0.00 0.00 93 1012.3
20260831072931 66 170 0.0 1.0 0.00 0.00 0.00 93 1012.3
20260831072431 66 170 0.0 1.0 0.00 0.00 0.00 93 1012.2
20260831071930 66 191 0.0 0.0 0.00 0.00 0.00 93 1012.3
20260831071429 66 171 0.0 0.0 0.00 0.00 0.00 93 1012.3
20260831070930 66 171 0.0 0.0 0.00 0.00 0.00 93 1012.4
20260831070427 66 167 0.0 0.0 0.00 0.00 0.00 92 1012.4
20260831065927 66 175 0.0 0.0 0.00 0.00 0.00 91 1012.4
20260831065422 66 165 0.0 0.0 0.00 0.00 0.00 91 1012.4
20260831064922 66 171 0.0 0.0 0.00 0.00 0.00 91 1012.3
20260831064423 66 170 0.0 0.0 0.00 0.00 0.00 91 1012.2
20260831063922 66 171 0.0 0.0 0.00 0.00 0.00 91 1012.2
20260831063423 66 141 0.0 0.0 0.00 0.00 0.00 91 1012.2
20260831062922 66 92 0.0 0.0 0.00 0.00 0.00 91 1012.3
20260831062422 66 92 0.0 0.0 0.00 0.00 0.00 91 1012.2
20260831062145 66 92 0.0 0.0 0.00 0.00 0.00 91 1012.2
20260831061423 67 92 0.0 0.0 0.00 0.00 0.00 91 1012.2
20260831061143 67 92 0.0 0.0 0.00 0.00 0.00 91 1012.2
20260831060418 67 92 0.0 0.0 0.00 0.00 0.00 91 1012.1
20260831055919 67 92 0.0 0.0 0.00 0.00 0.00 91 1012.1
20260831055417 67 92 0.0 0.0 0.00 0.00 0.00 91 1012.1
20260831054919 67 35 0.0 0.0 0.00 0.00 0.00 91 1012.1
20260831054418 67 35 0.0 0.0 0.00 0.00 0.00 91 1012.3
20260831053919 67 35 0.0 0.0 0.00 0.00 0.00 91 1012.3
20260831053419 67 35 0.0 0.0 0.00 0.00 0.00 90 1012.2
20260831052919 67 35 0.0 0.0 0.00 0.00 0.00 90 1012.2
20260831052417 67 35 0.0 0.0 0.00 0.00 0.00 90 1012.2
20260831051921 67 35 0.0 0.0 0.00 0.00 0.00 90 1012.2
20260831051418 67 35 0.0 0.0 0.00 0.00 0.00 89 1012.3
20260831050920 67 35 0.0 0.0 0.00 0.00 0.00 89 1012.4
20260831050418 67 35 0.0 0.0 0.00 0.00 0.00 88 1012.3
20260831045918 68 35 0.0 0.0 0.00 0.00 0.00 88 1012.3
20260831045419 68 35 0.0 0.0 0.00 0.00 0.00 88 1012.3
20260831044918 68 35 0.0 0.0 0.00 0.00 0.00 87 1012.3
20260831044418 68 35 0.0 0.0 0.00 0.00 0.00 87 1012.1
20260831043919 69 35 0.0 0.0 0.00 0.00 0.00 86 1012.0
20260831043419 69 35 0.0 0.0 0.00 0.00 0.00 86 1012.1
20260831042918 69 303 0.0 0.0 0.00 0.00 0.00 85 1012.1
20260831042419 69 303 0.0 0.0 0.00 0.00 0.00 84 1012.1
20260831041919 69 303 0.0 0.0 0.00 0.00 0.00 83 1012.2
20260831041853 70 303 0.0 0.0 0.00 0.00 0.00 82 1012.0
20260831041742 70 303 0.0 0.0 0.00 0.00 0.00 82 1012.0
20260831040646 70 303 0.0 0.0 0.00 0.00 0.00 81 1011.9
20260831035915 71 184 0.0 0.0 0.00 0.00 0.00 81 1011.9
20260831035413 71 184 0.0 0.0 0.00 0.00 0.00 81 1011.8
20260831034915 71 184 0.0 0.0 0.00 0.00 0.00 81 1011.8
20260831034414 71 184 0.0 0.0 0.00 0.00 0.00 81 1011.7
20260831033916 71 184 0.0 0.0 0.00 0.00 0.00 80 1011.7
20260831033418 71 184 0.0 0.0 0.00 0.00 0.00 80 1011.5
20260831032919 71 156 0.0 0.0 0.00 0.00 0.00 80 1011.4
20260831032643 71 183 0.0 0.0 0.00 0.00 0.00 80 1011.4
20260831031919 71 175 0.0 0.0 0.00 0.00 0.00 79 1011.4
20260831031415 71 184 0.0 0.0 0.00 0.00 0.00 79 1011.1
20260831030913 72 175 0.0 0.0 0.00 0.00 0.00 79 1011.0
20260831030413 72 190 0.0 0.0 0.00 0.00 0.00 78 1011.1
20260831025910 72 166 0.0 0.0 0.00 0.00 0.00 77 1011.3
20260831025636 73 175 0.0 0.0 0.00 0.00 0.00 76 1011.1
20260831025131 73 167 0.0 0.0 0.00 0.00 0.00 75 1011.0
20260831024421 74 211 0.0 0.0 0.00 0.00 0.00 74 1010.9
20260831023912 74 176 0.0 0.0 0.00 0.00 0.00 73 1010.9
20260831023412 75 223 0.0 0.0 0.00 0.00 0.00 72 1010.8
20260831023131 75 207 0.0 0.0 0.00 0.00 0.00 70 1010.9
20260831022625 76 221 0.0 0.0 0.00 0.00 0.00 69 1010.7
20260831021907 76 178 0.0 0.0 0.00 0.00 0.00 67 1010.9
20260831021408 77 209 0.0 0.0 0.00 0.00 0.00 66 1010.9
20260831021403 77 165 0.0 0.0 0.00 0.00 0.00 65 1010.8
20260831020632 78 167 0.0 0.0 0.00 0.00 0.00 63 1010.8
20260831015905 79 185 0.0 0.0 0.00 0.00 0.00 62 1010.8
20260831015405 80 207 0.0 0.0 0.00 0.00 0.00 61 1010.8
20260831014907 80 175 0.0 0.0 0.00 0.00 0.00 59 1010.7
20260831014404 80 223 0.0 0.0 0.00 0.00 0.00 59 1010.7
20260831013901 81 207 0.0 0.0 0.00 0.00 0.00 59 1010.6
20260831013403 81 211 0.0 0.0 0.00 0.00 0.00 59 1010.7
20260831012903 81 226 0.0 0.0 0.00 0.00 0.00 59 1010.7
20260831012402 81 224 0.0 0.0 0.00 0.00 0.00 60 1010.8
20260831011904 81 207 0.0 0.0 0.00 0.00 0.00 59 1010.7
20260831011402 81 165 0.0 0.0 0.00 0.00 0.00 58 1010.8
20260831010903 81 169 0.0 6.0 0.00 0.00 0.00 57 1010.9
20260831010403 82 184 0.0 6.0 0.00 0.00 0.00 58 1011.0
20260831005857 82 221 0.0 6.0 0.00 0.00 0.00 57 1010.9
20260831005358 82 179 0.0 6.0 0.00 0.00 0.00 56 1011.0
20260831005344 82 178 0.0 3.0 0.00 0.00 0.00 56 1011.0
20260831004359 82 211 0.0 2.0 0.00 0.00 0.00 55 1010.9
20260831003857 83 149 0.0 5.0 0.00 0.00 0.00 54 1010.9
20260831003357 84 165 0.0 5.0 0.00 0.00 0.00 52 1010.9
20260831002857 84 190 0.0 5.0 0.00 0.00 0.00 51 1010.9
20260831002848 85 201 0.0 5.0 0.00 0.00 0.00 51 1010.9
20260831001859 85 202 0.0 7.0 0.00 0.00 0.00 50 1011.0
20260831001353 85 147 0.0 7.0 0.00 0.00 0.00 49 1011.0
20260831000855 85 213 0.0 5.0 0.00 0.00 0.00 49 1010.9
20260831000355 85 202 0.0 8.0 0.00 0.00 0.00 49 1010.9
20260830235855 85 181 1.0 8.0 0.00 0.00 0.00 49 1010.9
20260830235354 85 259 1.0 9.0 0.00 0.00 0.00 50 1010.9
20260830235117 85 199 0.0 9.0 0.00 0.00 0.00 47 1010.9
20260830234355 85 223 0.0 5.0 0.00 0.00 0.00 47 1011.0
20260830233855 86 173 0.0 5.0 0.00 0.00 0.00 46 1010.9
20260830233621 86 226 0.0 7.0 0.00 0.00 0.00 46 1010.9
20260830232854 87 200 0.0 7.0 0.00 0.00 0.00 47 1010.8
20260830232353 87 158 1.0 7.0 0.00 0.00 0.00 47 1010.9
20260830232111 87 209 1.0 7.0 0.00 0.00 0.00 47 1011.0
20260830231355 87 261 1.0 6.0 0.00 0.00 0.00 47 1010.9
20260830230854 87 194 1.0 6.0 0.00 0.00 0.00 47 1011.1
20260830230352 88 248 1.0 6.0 0.00 0.00 0.00 46 1011.0
20260830225853 87 151 1.0 10.0 0.00 0.00 0.00 46 1011.0
20260830225357 88 242 3.0 10.0 0.00 0.00 0.00 46 1011.0
20260830225351 87 223 2.0 10.0 0.00 0.00 0.00 46 1010.9
20260830224351 88 223 2.0 10.0 0.00 0.00 0.00 44 1011.0
20260830223847 88 197 2.0 9.0 0.00 0.00 0.00 44 1011.0
20260830223346 89 260 1.0 9.0 0.00 0.00 0.00 44 1010.9
20260830222840 88 223 1.0 9.0 0.00 0.00 0.00 45 1011.1
20260830222335 88 183 1.0 9.0 0.00 0.00 0.00 45 1011.1
20260830221831 88 248 2.0 9.0 0.00 0.00 0.00 45 1011.1
20260830221325 88 5 1.0 7.0 0.00 0.00 0.00 46 1011.4
20260830220819 88 221 0.0 55.0 0.00 0.00 0.00 46 1011.5
20260830220313 88 199 1.0 55.0 0.00 0.00 0.00 47 1011.4
20260830215807 88 149 2.0 9.0 0.00 0.00 0.00 47 1011.5
20260830215332 88 209 1.0 9.0 0.00 0.00 0.00 47 1011.5
20260830214755 88 167 1.0 9.0 0.00 0.00 0.00 48 1011.5
20260830214250 88 258 2.0 10.0 0.00 0.00 0.00 48 1011.7
20260830213743 88 254 1.0 10.0 0.00 0.00 0.00 48 1011.7
20260830213237 89 225 1.0 9.0 0.00 0.00 0.00 48 1011.8
20260830212731 88 225 2.0 9.0 0.00 0.00 0.00 49 1011.8
20260830212225 88 277 1.0 10.0 0.00 0.00 0.00 49 1011.9
20260830211719 89 200 1.0 10.0 0.00 0.00 0.00 50 1012.0
20260830211432 88 197 1.0 9.0 0.00 0.00 0.00 50 1012.0
20260830211151 89 203 1.0 9.0 0.00 0.00 0.00 51 1012.1
20260830205655 89 250 0.0 10.0 0.00 0.00 0.00 49 1012.1
20260830205149 89 215 1.0 10.0 0.00 0.00 0.00 50 1012.1
20260830204908 89 230 1.0 14.0 0.00 0.00 0.00 50 1012.1
20260830204137 89 232 2.0 14.0 0.00 0.00 0.00 51 1012.1
20260830203632 89 254 2.0 14.0 0.00 0.00 0.00 51 1012.2
20260830203125 89 217 1.0 14.0 0.00 0.00 0.00 51 1012.2
20260830202619 89 268 1.0 9.0 0.00 0.00 0.00 50 1012.1
20260830202113 89 240 1.0 9.0 0.00 0.00 0.00 50 1012.1
20260830201832 89 236 2.0 9.0 0.00 0.00 0.00 50 1012.2
20260830201106 89 194 2.0 9.0 0.00 0.00 0.00 50 1012.1
20260830200555 89 238 2.0 9.0 0.00 0.00 0.00 49 1012.2
20260830200050 89 174 2.0 9.0 0.00 0.00 0.00 49 1012.3
20260830195543 90 281 0.0 5.0 0.00 0.00 0.00 48 1012.3
20260830195038 90 199 1.0 10.0 0.00 0.00 0.00 48 1012.3
20260830194531 90 192 1.0 10.0 0.00 0.00 0.00 47 1012.4
20260830194026 90 235 1.0 11.0 0.00 0.00 0.00 47 1012.4
20260830193518 89 196 1.0 11.0 0.00 0.00 0.00 47 1012.4
20260830193014 89 267 2.0 9.0 0.00 0.00 0.00 47 1012.4
20260830192507 89 223 2.0 10.0 0.00 0.00 0.00 48 1012.3
20260830192001 89 208 1.0 10.0 0.00 0.00 0.00 47 1012.4
20260830191716 89 228 3.0 10.0 0.00 0.00 0.00 47 1012.4
20260830190950 89 244 2.0 10.0 0.00 0.00 0.00 47 1012.5
20260830190444 89 223 1.0 7.0 0.00 0.00 0.00 46 1012.5
20260830185937 89 238 1.0 10.0 0.00 0.00 0.00 46 1012.5
20260830185433 89 208 1.0 10.0 0.00 0.00 0.00 47 1012.5
20260830184926 89 187 2.0 11.0 0.00 0.00 0.00 47 1012.6
20260830184416 88 250 3.0 11.0 0.00 0.00 0.00 48 1012.5
20260830183914 88 188 2.0 11.0 0.00 0.00 0.00 49 1012.6
20260830183407 88 236 1.0 8.0 0.00 0.00 0.00 49 1012.6
20260830183123 88 234 1.0 8.0 0.00 0.00 0.00 50 1012.6
20260830182355 88 213 1.0 6.0 0.00 0.00 0.00 47 1012.6
20260830181850 88 153 0.0 9.0 0.00 0.00 0.00 48 1012.7
20260830181343 88 179 1.0 9.0 0.00 0.00 0.00 48 1012.9
20260830181322 87 45 1.0 9.0 0.00 0.00 0.00 47 1012.8
20260830180332 87 153 1.0 9.0 0.00 0.00 0.00 45 1012.8
20260830175829 87 178 0.0 7.0 0.00 0.00 0.00 45 1012.7
20260830175805 87 176 0.0 7.0 0.00 0.00 0.00 45 1012.7
20260830174813 86 164 1.0 7.0 0.00 0.00 0.00 46 1012.7
20260830174307 86 225 1.0 7.0 0.00 0.00 0.00 43 1012.7
20260830174023 85 145 1.0 8.0 0.00 0.00 0.00 45 1012.6
20260830173255 85 168 0.0 8.0 0.00 0.00 0.00 46 1012.6
20260830172750 85 119 1.0 6.0 0.00 0.00 0.00 47 1012.6
20260830172243 85 172 1.0 5.0 0.00 0.00 0.00 48 1012.5
20260830171738 85 193 0.0 5.0 0.00 0.00 0.00 48 1012.5
20260830171231 85 104 0.0 5.0 0.00 0.00 0.00 49 1012.4
20260830170726 85 233 1.0 5.0 0.00 0.00 0.00 47 1012.4
20260830170219 85 231 0.0 4.0 0.00 0.00 0.00 47 1012.4
20260830165710 85 229 0.0 4.0 0.00 0.00 0.00 52 1012.4
20260830165207 85 251 0.0 2.0 0.00 0.00 0.00 52 1012.4
20260830164924 84 186 0.0 1.0 0.00 0.00 0.00 54 1012.4
20260830164155 84 136 0.0 1.0 0.00 0.00 0.00 55 1012.4
20260830163650 83 119 0.0 1.0 0.00 0.00 0.00 56 1012.4
20260830163143 83 153 0.0 2.0 0.00 0.00 0.00 57 1012.5
20260830162638 83 85 0.0 2.0 0.00 0.00 0.00 59 1012.3
20260830162132 83 104 0.0 0.0 0.00 0.00 0.00 59 1012.4
20260830161625 82 134 0.0 2.0 0.00 0.00 0.00 62 1012.4
20260830161341 82 107 0.0 2.0 0.00 0.00 0.00 62 1012.3
20260830160613 81 150 0.0 2.0 0.00 0.00 0.00 63 1012.4
20260830160107 81 61 0.0 2.0 0.00 0.00 0.00 65 1012.3
20260830155601 80 184 0.0 0.0 0.00 0.00 0.00 66 1012.3
20260830155055 80 161 0.0 0.0 0.00 0.00 0.00 65 1012.4
20260830154550 79 229 0.0 0.0 0.00 0.00 0.00 66 1012.1
20260830154043 79 158 0.0 0.0 0.00 0.00 0.00 66 1012.2
20260830153538 78 148 0.0 0.0 0.00 0.00 0.00 67 1012.1
20260830153031 78 193 0.0 0.0 0.00 0.00 0.00 67 1012.1
20260830152525 77 130 0.0 0.0 0.00 0.00 0.00 69 1012.2
20260830152019 77 163 0.0 0.0 0.00 0.00 0.00 69 1012.2
20260830151513 76 178 0.0 0.0 0.00 0.00 0.00 69 1012.3
20260830151236 76 155 0.0 0.0 0.00 0.00 0.00 70 1012.3
20260830150502 75 159 0.0 0.0 0.00 0.00 0.00 71 1012.3
20260830145955 75 175 0.0 0.0 0.00 0.00 0.00 73 1012.3
20260830145709 74 90 0.0 0.0 0.00 0.00 0.00 76 1012.2
20260830145206 73 90 0.0 0.0 0.00 0.00 0.00 80 1012.1
20260830144435 72 90 0.0 0.0 0.00 0.00 0.00 82 1012.2
20260830143929 71 90 0.0 0.0 0.00 0.00 0.00 85 1012.1
20260830143424 70 90 0.0 0.0 0.00 0.00 0.00 88 1012.2
20260830142917 69 90 0.0 0.0 0.00 0.00 0.00 90 1012.0
20260830142411 69 90 0.0 0.0 0.00 0.00 0.00 93 1012.1
20260830141906 68 90 0.0 0.0 0.00 0.00 0.00 94 1012.0
20260830141626 68 90 0.0 0.0 0.00 0.00 0.00 94 1012.0
20260830140854 68 90 0.0 0.0 0.00 0.00 0.00 95 1011.9
20260830140347 68 90 0.0 0.0 0.00 0.00 0.00 95 1011.9
20260830135841 67 90 0.0 0.0 0.00 0.00 0.00 95 1011.9
20260830135336 67 90 0.0 0.0 0.00 0.00 0.00 95 1011.9
20260830134829 67 90 0.0 0.0 0.00 0.00 0.00 95 1011.9
20260830134324 67 90 0.0 0.0 0.00 0.00 0.00 94 1011.9
20260830133818 66 90 0.0 0.0 0.00 0.00 0.00 94 1011.9
20260830133310 67 90 0.0 0.0 0.00 0.00 0.00 94 1011.8
20260830132805 67 90 0.0 0.0 0.00 0.00 0.00 94 1011.7
20260830132259 67 82 0.0 0.0 0.00 0.00 0.00 94 1011.7
20260830131753 67 83 0.0 0.0 0.00 0.00 0.00 94 1011.7
20260830131511 67 83 0.0 0.0 0.00 0.00 0.00 94 1011.7
20260830130742 67 83 0.0 0.0 0.00 0.00 0.00 94 1011.8
20260830130505 67 116 0.0 0.0 0.00 0.00 0.00 94 1011.7
20260830125728 67 123 0.0 0.0 0.00 0.00 0.00 94 1011.5
20260830125223 67 117 0.0 0.0 0.00 0.00 0.00 94 1011.6
20260830124717 68 115 0.0 0.0 0.00 0.00 0.00 94 1011.5
20260830124242 68 118 0.0 0.0 0.00 0.00 0.00 94 1011.5
20260830123930 68 113 0.0 0.0 0.00 0.00 0.00 94 1011.5
20260830122653 68 112 0.0 0.0 0.00 0.00 0.00 94 1011.6
20260830122147 68 112 0.0 0.0 0.00 0.00 0.00 94 1011.5
20260830121641 68 112 0.0 0.0 0.00 0.00 0.00 93 1011.5
20260830121135 68 113 0.0 0.0 0.00 0.00 0.00 93 1011.4
20260830120629 68 109 0.0 0.0 0.00 0.00 0.00 93 1011.4
20260830120123 68 120 0.0 0.0 0.00 0.00 0.00 93 1011.4
20260830115618 68 180 0.0 0.0 0.00 0.00 0.00 93 1011.5
20260830115112 68 209 0.0 0.0 0.00 0.00 0.00 93 1011.3
20260830114828 68 209 0.0 0.0 0.00 0.00 0.00 93 1011.6
20260830114059 68 163 0.0 0.0 0.00 0.00 0.00 92 1011.5
20260830113554 68 192 0.0 0.0 0.00 0.00 0.00 91 1011.4
20260830113048 68 248 0.0 0.0 0.00 0.00 0.00 91 1011.4
20260830112541 68 248 0.0 0.0 0.00 0.00 0.00 91 1011.4
20260830112035 68 248 0.0 0.0 0.00 0.00 0.00 91 1011.3
20260830111529 69 248 0.0 0.0 0.00 0.00 0.00 91 1011.4
20260830111024 69 217 0.0 0.0 0.00 0.00 0.00 91 1011.4
20260830110517 69 164 0.0 0.0 0.00 0.00 0.00 91 1011.5
20260830110011 69 229 0.0 0.0 0.00 0.00 0.00 91 1011.3
20260830105505 69 184 0.0 0.0 0.00 0.00 0.00 91 1011.3
20260830104959 69 161 0.0 0.0 0.00 0.00 0.00 91 1011.3
20260830104453 69 175 0.0 0.0 0.00 0.00 0.00 90 1011.3
20260830103948 69 166 0.0 0.0 0.00 0.00 0.00 91 1011.4
20260830103441 69 210 0.0 0.0 0.00 0.00 0.00 91 1011.3
20260830103423 69 210 0.0 0.0 0.00 0.00 0.00 90 1011.1
20260830102429 69 227 0.0 0.0 0.00 0.00 0.00 90 1011.1
20260830102148 69 227 0.0 0.0 0.00 0.00 0.00 90 1011.1
20260830101417 69 205 0.0 0.0 0.00 0.00 0.00 89 1011.1
20260830100911 69 205 0.0 0.0 0.00 0.00 0.00 90 1010.9
20260830100405 70 246 0.0 0.0 0.00 0.00 0.00 89 1011.1
20260830095859 70 229 0.0 0.0 0.00 0.00 0.00 90 1011.0
20260830095355 70 109 0.0 0.0 0.00 0.00 0.00 89 1011.0
20260830094847 70 192 0.0 1.0 0.00 0.00 0.00 89 1011.0
20260830094341 70 165 0.0 1.0 0.00 0.00 0.00 89 1011.0
20260830093836 70 171 0.0 1.0 0.00 0.00 0.00 89 1010.9
20260830093556 70 173 0.0 1.0 0.00 0.00 0.00 89 1010.9
20260830092823 70 171 0.0 0.0 0.00 0.00 0.00 89 1011.0
20260830092318 70 182 0.0 2.0 0.00 0.00 0.00 88 1011.4
20260830091811 70 172 0.0 2.0 0.00 0.00 0.00 88 1011.3
20260830091306 70 170 0.0 0.0 0.00 0.00 0.00 88 1011.1
20260830090759 70 195 0.0 0.0 0.00 0.00 0.00 88 1011.1
20260830090515 70 339 0.0 0.0 0.00 0.00 0.00 88 1011.1
20260830085748 70 339 0.0 0.0 0.00 0.00 0.00 88 1011.3
20260830085242 70 339 0.0 0.0 0.00 0.00 0.00 88 1011.3
20260830084734 71 339 0.0 0.0 0.00 0.00 0.00 87 1011.1
20260830084229 71 339 0.0 0.0 0.00 0.00 0.00 86 1011.1
20260830083723 71 339 0.0 0.0 0.00 0.00 0.00 85 1011.3
20260830083217 71 339 0.0 0.0 0.00 0.00 0.00 84 1011.1
20260830082712 72 339 0.0 0.0 0.00 0.00 0.00 83 1011.3